Flag for U.S.A. Weather past 2 weeks in Cleveland, Tennessee, U.S.A.

Now
92 °F

Broken clouds.


Feels Like: 96 °F
Forecast: 72 / 92 °F
Wind: 3 mph from Northwest

Location: Lovell Field

Current Time: Aug 4, 2015 at 9:00:49 PM

Latest Report: Aug 4, 2015 at 7:53 PM


Visibility: 10 mi

Pressure: 29.94 "Hg

Humidity: 46%

Dew point: 68 °F

Location of ClevelandLocation

Historic Weather in Cleveland — Graph

°F

Cleveland temperature yesterday

Maximum temperature yesterday: 94 °F (at 4:53 PM)
Minimum temperature yesterday: 67 °F (at 6:53 AM)
Average temperature yesterday: 81 °F

Past Weeks' High & Low Weather Summary

 TemperatureHumidityPressure
High97 °F (Aug 4, 4:53 PM)94% (Jul 22, 6:53 AM)30.03 "Hg (Jul 22, 6:53 AM)
Low65 °F (Aug 1, 6:53 AM)26% (Aug 3, 4:53 PM)29.80 "Hg (Jul 21, 4:53 AM)
Average81 °F68%29.94 "Hg
* Reported Jul 20 7:53 PM — Aug 4 7:53 PM, Cleveland, Weather by CustomWeather, © 2015

Note: Actual official high and low records may vary slightly from our data, if they occured in-between our weather recording intervals... More about our weather records

Advertising

Cleveland weather history for previous 24 hours

 ConditionsComfort  
Time TempWeatherWind HumidityBarometerVisibility
7:53 PM
Tue, Aug 4
92 °FBroken clouds.3 mph46%29.94 "Hg10 mi
6:53 PM95 °FBroken clouds.7 mph35%29.93 "Hg10 mi
5:53 PM96 °FScattered clouds.5 mph30%29.93 "Hg10 mi
4:53 PM97 °FScattered clouds.6 mph28%29.94 "Hg10 mi
3:53 PM96 °FBroken clouds.5 mph32%29.96 "Hg10 mi
2:53 PM95 °FBroken clouds.6 mph35%29.97 "Hg10 mi
1:53 PM94 °FBroken clouds.3 mph40%29.98 "Hg10 mi
12:53 PM92 °FScattered clouds.No wind47%30.00 "Hg10 mi
11:53 AM90 °FScattered clouds.5 mph48%30.01 "Hg10 mi
10:53 AM86 °FScattered clouds.No wind55%30.01 "Hg10 mi
9:53 AM81 °FScattered clouds.No wind65%30.01 "Hg10 mi
8:53 AM75 °FBroken clouds.No wind76%30.01 "Hg10 mi
7:53 AM71 °FBroken clouds.No wind81%30.00 "Hg10 mi
6:53 AM70 °FPassing clouds.No wind84%29.98 "Hg10 mi
5:53 AM72 °FPassing clouds.No wind78%29.96 "Hg10 mi
4:53 AM71 °FClear.No wind84%29.95 "Hg10 mi
3:53 AM73 °FClear.3 mph79%29.94 "Hg10 mi
2:53 AM74 °FClear.No wind76%29.94 "Hg10 mi
1:53 AM75 °FClear.No wind76%29.94 "Hg10 mi
12:53 AM77 °FClear.No wind71%29.94 "Hg10 mi
11:53 PM
Mon, Aug 3
76 °FPassing clouds.No wind74%29.93 "Hg10 mi
10:53 PM78 °FPassing clouds.No wind71%29.93 "Hg10 mi
9:53 PM79 °FPassing clouds.No wind72%29.91 "Hg10 mi
Weather by CustomWeather, © 2015

See weather overviewHow to use our weather pages